Location: Buch
(49.7331°N, 12.1098°E)
Time: 23:44:22
(UTC+00:00)

Cosmos 1515 - Pass Details

Date: 12 May 2021
Orbit: 505 x 513 km, 82.5° (Epoch: 23 June)

Event Time Altitude Azimuth Distance (km) Brightness Sun altitude
Exits shadow 21:47:43 62° 170° (S) 578 3.6 -19.6°
Maximum altitude 21:48:18 81° 99° (E) 521 3.5 -19.7°
Drops below altitude 10° 21:52:06 10° 12° (NNE) 1,737 7.2 -19.9°
Sets 21:54:15 0° 11° (NNE) 2,629 8.3 -20.0°
